When you browse on this site, cookies collect data to enhance your experience and personalize the content and advertising you see.
Visit our Privacy Policy to learn more. By continuing to use the site, you agree to this use of cookies and data.
  • In Deutschland
  • Länderverzeichnis
  • Für 7 Tage
  • Wassertemperatur
  • Satellitenkarten
  • Wetterkarte
  • Widgets
  • user-avatar
    Anmelden

    Stündliche Wetter Morpeth

    Heute, 15 Dezember, Samstag

    Zeit Temperatur Niederschläge Wind Luftdruck Luftfeuchtigkeit
    00:00 -2°C° 0 mm 8 m/S 759 mmHg 76%
    01:00 -2°C° 0 mm 8 m/S 759 mmHg 74%
    02:00 -3°C° 0 mm 9 m/S 758 mmHg 73%
    03:00 -3°C° 0 mm 9 m/S 758 mmHg 72%
    04:00 -3°C° 0 mm 9 m/S 757 mmHg 72%
    05:00 -3°C° 0 mm 10 m/S 757 mmHg 71%
    06:00 -3°C° 0 mm 9 m/S 756 mmHg 72%
    07:00 -3°C° 0 mm 9 m/S 756 mmHg 71%
    08:00 -3°C° 0 mm 10 m/S 755 mmHg 70%
    09:00 -3°C° 0 mm 10 m/S 755 mmHg 68%
    10:00 -3°C° 0 mm 11 m/S 754 mmHg 68%
    11:00 -3°C° 0 mm 12 m/S 753 mmHg 69%
    12:00 -2°C° 0 mm 12 m/S 751 mmHg 69%
    13:00 -2°C° 0 mm 13 m/S 750 mmHg 70%
    14:00 -2°C° 0 mm 13 m/S 749 mmHg 72%
    15:00 -2°C° 0 mm 13 m/S 747 mmHg 73%
    16:00 -2°C° 1.9 mm 14 m/S 746 mmHg 79%
    17:00 -2°C° 1.9 mm 14 m/S 745 mmHg 84%
    18:00 -2°C° 1.9 mm 14 m/S 743 mmHg 89%
    19:00 -2°C° 2.3 mm 13 m/S 742 mmHg 90%
    20:00 -1°C° 2.3 mm 13 m/S 741 mmHg 91%
    21:00 -1°C° 2.3 mm 12 m/S 740 mmHg 92%
    22:00 -1°C° 0.3 mm 11 m/S 739 mmHg 93%
    23:00 0°C° 0.3 mm 10 m/S 738 mmHg 95%

    Morgen, 16 Dezember, Sonntag

    Zeit Temperatur Niederschläge Wind Luftdruck Luftfeuchtigkeit
    00:00 +1°C° 0.3 mm 8 m/S 738 mmHg 96%
    01:00 +1°C° 0.7 mm 9 m/S 738 mmHg 93%
    02:00 +1°C° 0.7 mm 9 m/S 738 mmHg 90%
    03:00 +2°C° 0.7 mm 9 m/S 738 mmHg 87%
    04:00 +2°C° 0.4 mm 9 m/S 739 mmHg 87%
    05:00 +2°C° 0.4 mm 9 m/S 740 mmHg 86%
    06:00 +2°C° 0.4 mm 9 m/S 741 mmHg 86%
    07:00 +1°C° 0.1 mm 8 m/S 742 mmHg 86%
    08:00 +2°C° 0.1 mm 7 m/S 743 mmHg 87%
    09:00 +2°C° 0.1 mm 7 m/S 743 mmHg 87%
    10:00 +2°C° 0 mm 6 m/S 744 mmHg 87%
    11:00 +3°C° 0 mm 6 m/S 744 mmHg 87%
    12:00 +3°C° 0 mm 6 m/S 745 mmHg 86%
    13:00 +3°C° 0 mm 5 m/S 745 mmHg 87%
    14:00 +3°C° 0 mm 5 m/S 746 mmHg 88%
    15:00 +2°C° 0 mm 5 m/S 746 mmHg 89%
    16:00 +3°C° 0 mm 4 m/S 746 mmHg 89%
    17:00 +3°C° 0 mm 4 m/S 747 mmHg 89%
    18:00 +1°C° 0 mm 4 m/S 747 mmHg 89%
    19:00 +1°C° 0 mm 4 m/S 748 mmHg 90%
    20:00 +1°C° 0 mm 4 m/S 748 mmHg 90%
    21:00 +1°C° 0 mm 4 m/S 748 mmHg 90%
    22:00 +1°C° 0 mm 4 m/S 749 mmHg 90%
    23:00 +1°C° 0 mm 4 m/S 749 mmHg 90%

    übermorgen, 17 Dezember, Montag

    Zeit Temperatur Niederschläge Wind Luftdruck Luftfeuchtigkeit
    00:00 +1°C° 0 mm 4 m/S 749 mmHg 89%
    01:00 +1°C° 0 mm 4 m/S 749 mmHg 89%
    02:00 +1°C° 0 mm 4 m/S 750 mmHg 89%
    03:00 +1°C° 0 mm 4 m/S 750 mmHg 89%
    04:00 +1°C° 0 mm 4 m/S 751 mmHg 89%
    05:00 +1°C° 0 mm 4 m/S 751 mmHg 89%
    06:00 +1°C° 0 mm 4 m/S 752 mmHg 89%
    07:00 +1°C° 0 mm 4 m/S 752 mmHg 89%
    08:00 +1°C° 0 mm 4 m/S 753 mmHg 89%
    09:00 +1°C° 0 mm 4 m/S 753 mmHg 89%
    10:00 +3°C° 0 mm 4 m/S 754 mmHg 88%
    11:00 +3°C° 0 mm 5 m/S 754 mmHg 87%
    12:00 +3°C° 0 mm 5 m/S 754 mmHg 86%
    13:00 +3°C° 0 mm 5 m/S 754 mmHg 87%
    14:00 +3°C° 0 mm 5 m/S 754 mmHg 88%
    15:00 +3°C° 0 mm 5 m/S 754 mmHg 89%
    16:00 +3°C° 0 mm 6 m/S 753 mmHg 89%
    17:00 +3°C° 0 mm 7 m/S 753 mmHg 89%
    18:00 +4°C° 0 mm 8 m/S 753 mmHg 90%
    19:00 +4°C° 0.2 mm 8 m/S 753 mmHg 89%
    20:00 +5°C° 0.2 mm 8 m/S 752 mmHg 89%
    21:00 +5°C° 0.2 mm 9 m/S 752 mmHg 89%
    22:00 +6°C° 0 mm 9 m/S 752 mmHg 88%
    23:00 +6°C° 0 mm 9 m/S 751 mmHg 88%

    18 Dezember, Dienstag

    Zeit Temperatur Niederschläge Wind Luftdruck Luftfeuchtigkeit
    00:00 +7°C° 0 mm 9 m/S 751 mmHg 87%
    01:00 +7°C° 0 mm 9 m/S 751 mmHg 86%
    02:00 +7°C° 0 mm 9 m/S 750 mmHg 86%
    03:00 +7°C° 0 mm 9 m/S 750 mmHg 85%
    04:00 +7°C° 0 mm 10 m/S 750 mmHg 84%
    05:00 +8°C° 0 mm 10 m/S 749 mmHg 83%
    06:00 +8°C° 0 mm 10 m/S 748 mmHg 82%
    07:00 +8°C° 0 mm 11 m/S 748 mmHg 81%
    08:00 +7°C° 0 mm 12 m/S 747 mmHg 80%
    09:00 +7°C° 0 mm 12 m/S 747 mmHg 79%
    10:00 +7°C° 0.3 mm 12 m/S 746 mmHg 79%
    11:00 +7°C° 0.3 mm 12 m/S 746 mmHg 78%
    12:00 +7°C° 0.3 mm 12 m/S 745 mmHg 78%
    13:00 +7°C° 0.6 mm 12 m/S 744 mmHg 77%
    14:00 +5°C° 0.6 mm 13 m/S 744 mmHg 76%
    15:00 +5°C° 0.6 mm 13 m/S 743 mmHg 75%
    16:00 +5°C° 0.4 mm 12 m/S 743 mmHg 76%
    17:00 +5°C° 0.4 mm 12 m/S 743 mmHg 78%
    18:00 +5°C° 0.4 mm 12 m/S 742 mmHg 80%
    19:00 +6°C° 1.1 mm 11 m/S 742 mmHg 81%
    20:00 +4°C° 1.1 mm 11 m/S 742 mmHg 83%
    21:00 +5°C° 1.1 mm 10 m/S 742 mmHg 85%
    22:00 +5°C° 1.1 mm 9 m/S 742 mmHg 86%
    23:00 +5°C° 1.1 mm 8 m/S 742 mmHg 88%

    19 Dezember, Mittwoch

    Zeit Temperatur Niederschläge Wind Luftdruck Luftfeuchtigkeit
    00:00 +5°C° 1.1 mm 7 m/S 741 mmHg 89%
    01:00 +4°C° 0.3 mm 6 m/S 742 mmHg 88%
    02:00 +4°C° 0.3 mm 6 m/S 742 mmHg 87%
    03:00 +5°C° 0.3 mm 5 m/S 742 mmHg 86%
    04:00 +5°C° 0 mm 5 m/S 743 mmHg 85%
    05:00 +3°C° 0 mm 5 m/S 744 mmHg 85%
    06:00 +3°C° 0 mm 5 m/S 744 mmHg 84%
    07:00 +3°C° 0 mm 6 m/S 745 mmHg 83%
    08:00 +3°C° 0 mm 6 m/S 746 mmHg 81%
    09:00 +3°C° 0 mm 7 m/S 747 mmHg 79%
    10:00 +4°C° 0 mm 7 m/S 747 mmHg 78%
    11:00 +4°C° 0 mm 8 m/S 747 mmHg 76%
    12:00 +5°C° 0 mm 8 m/S 747 mmHg 75%
    13:00 +5°C° 0 mm 8 m/S 747 mmHg 76%
    14:00 +5°C° 0 mm 8 m/S 748 mmHg 77%
    15:00 +5°C° 0 mm 7 m/S 748 mmHg 78%
    16:00 +4°C° 0 mm 7 m/S 748 mmHg 79%
    17:00 +4°C° 0 mm 8 m/S 748 mmHg 81%
    18:00 +4°C° 0 mm 8 m/S 748 mmHg 82%
    19:00 +4°C° 0 mm 8 m/S 748 mmHg 82%
    20:00 +4°C° 0 mm 8 m/S 749 mmHg 82%
    21:00 +4°C° 0 mm 8 m/S 749 mmHg 82%
    22:00 +4°C° 0 mm 8 m/S 749 mmHg 83%
    23:00 +4°C° 0 mm 8 m/S 749 mmHg 84%

    20 Dezember, Donnerstag

    Zeit Temperatur Niederschläge Wind Luftdruck Luftfeuchtigkeit
    00:00 +4°C° 0 mm 7 m/S 749 mmHg 85%
    01:00 +4°C° 0 mm 7 m/S 749 mmHg 86%
    02:00 +4°C° 0 mm 6 m/S 750 mmHg 87%
    03:00 +3°C° 0 mm 6 m/S 750 mmHg 89%
    04:00 +3°C° 0 mm 5 m/S 750 mmHg 90%
    05:00 +3°C° 0 mm 5 m/S 751 mmHg 90%
    06:00 +3°C° 0 mm 5 m/S 751 mmHg 91%
    07:00 +3°C° 0 mm 5 m/S 752 mmHg 91%
    08:00 +4°C° 0 mm 4 m/S 752 mmHg 92%
    09:00 +4°C° 0 mm 4 m/S 753 mmHg 92%
    10:00 +5°C° 0 mm 4 m/S 754 mmHg 90%
    11:00 +5°C° 0 mm 4 m/S 754 mmHg 88%
    12:00 +6°C° 0 mm 4 m/S 754 mmHg 87%
    13:00 +6°C° 0 mm 4 m/S 755 mmHg 87%
    14:00 +6°C° 0 mm 4 m/S 755 mmHg 88%
    15:00 +5°C° 0 mm 4 m/S 756 mmHg 89%
    16:00 +5°C° 0 mm 3 m/S 756 mmHg 89%
    17:00 +4°C° 0 mm 3 m/S 756 mmHg 90%
    18:00 +4°C° 0 mm 3 m/S 757 mmHg 91%
    19:00 +4°C° 0 mm 3 m/S 757 mmHg 92%
    20:00 +3°C° 0 mm 3 m/S 758 mmHg 92%
    21:00 +3°C° 0 mm 3 m/S 758 mmHg 93%
    22:00 +3°C° 0 mm 3 m/S 758 mmHg 93%
    23:00 +3°C° 0 mm 3 m/S 758 mmHg 92%
    Mehr zeigen